Le nostre stazioni meteo in Italia

Pubblicità
Il mio iltempo24.it
Cagliari/Elmas, Italia (16560): Temperatura & dewpoint: 01.07.2020 16:00:00 - 07.07.2020 16:00:00 (CEST)Cagliari/Elmas, Italia (16560): velocità del vento: 01.07.2020 16:00:00 - 07.07.2020 16:00:00 (CEST)Cagliari/Elmas, Italia (16560): direzione del vento: 01.07.2020 16:00:00 - 07.07.2020 16:00:00 (CEST)Cagliari/Elmas, Italia (16560): reduced air pressure: 01.07.2020 16:00:00 - 07.07.2020 16:00:00 (CEST)Cagliari/Elmas, Italia (16560): visibility: 01.07.2020 16:00:00 - 07.07.2020 16:00:00 (CEST)Cagliari/Elmas, Italia (16560): precipitazioni: 01.07.2020 16:00:00 - 07.07.2020 16:00:00 (CEST)
Data & Tempo tt [°C] td [°C] ff [km/h] ff [kn] dd ppp [hPa] vv [km] rr [mm]
07.07.2020 16:00:00 29,0 13,0 26 14 NNO - 10 -
07.07.2020 15:00:00 29,0 13,0 28 15 NNO - 10 -
07.07.2020 14:00:00 29,6 13,2 26 14 NNO 1011,5 10 -
07.07.2020 13:00:00 29,0 13,0 26 14 NNO - 10 -
07.07.2020 12:00:00 29,0 12,0 28 15 NNO - 10 -
07.07.2020 11:00:00 27,1 11,0 31 17 NNO 1010,9 10 0,0
07.07.2020 10:00:00 26,0 11,0 34 18 NNO - 10 -
07.07.2020 09:00:00 25,0 12,0 34 18 NO - 10 -
07.07.2020 08:00:00 23,0 15,3 24 13 NNO 1010,2 10 -
07.07.2020 07:00:00 21,0 16,0 15 8 NNO - 10 -
07.07.2020 06:00:00 21,0 17,0 18 10 NNO - 10 -
07.07.2020 05:00:00 21,3 17,3 21 11 NNO 1009,6 10 0,0
07.07.2020 04:00:00 22,0 18,0 22 12 NNO - 10 -
07.07.2020 03:00:00 22,0 18,0 16 9 NNO - 10 -
07.07.2020 02:00:00 22,4 18,4 18 10 NNO 1010,3 20 -
07.07.2020 01:00:00 23,0 19,0 21 11 NNO - 10 -
07.07.2020 00:00:00 23,0 19,0 31 17 N - 10 -
06.07.2020 23:00:00 23,1 18,6 24 13 NNO 1010,3 10 0,0
06.07.2020 22:00:00 24,0 18,0 24 13 NNO - 10 -
06.07.2020 21:00:00 26,0 18,0 28 15 N - 10 -
06.07.2020 20:00:00 28,4 17,2 22 12 NNO 1009,1 10 -
06.07.2020 19:00:00 32,0 15,0 22 12 NNO - 10 -
06.07.2020 18:00:00 34,0 10,0 22 12 NNO - 10 -
06.07.2020 17:00:00 35,1 12,1 9 5 - 1008,8 10 0,0
06.07.2020 16:00:00 33,0 16,0 11 6 S - 10 -
06.07.2020 15:00:00 33,0 14,0 15 8 S - 10 -
06.07.2020 14:00:00 31,3 15,7 15 8 SSE 1010,4 10 -
06.07.2020 13:00:00 33,0 13,0 11 6 O - 10 -
06.07.2020 12:00:00 30,0 14,0 11 6 ONO - 10 -
06.07.2020 11:00:00 28,3 14,4 11 6 NO 1011,9 10 0,0
06.07.2020 10:00:00 26,0 17,0 15 8 NNO - 10 -
06.07.2020 09:00:00 24,0 18,0 16 9 NNO - 10 -
06.07.2020 08:00:00 20,7 17,6 15 8 NO 1012,7 10 -
06.07.2020 07:00:00 18,0 17,0 11 6 NNO - 10 -
06.07.2020 06:00:00 19,0 17,0 15 8 NO - 10 -
06.07.2020 05:00:00 19,1 17,5 16 9 NNO 1013,2 10 0,0
06.07.2020 04:00:00 20,0 18,0 13 7 NO - 10 -
06.07.2020 03:00:00 20,0 18,0 15 8 NNO - 10 -
06.07.2020 02:00:00 20,9 18,0 16 9 NNO 1014,6 10 -
06.07.2020 01:00:00 22,0 18,0 15 8 N - 10 -
06.07.2020 00:00:00 22,0 18,0 18 10 N - 10 -
05.07.2020 23:00:00 22,5 17,4 22 12 N 1015,6 10 0,0
05.07.2020 22:00:00 24,0 17,0 22 12 N - 10 -
05.07.2020 21:00:00 25,0 17,0 26 14 N - 10 -
05.07.2020 20:00:00 27,7 15,8 24 13 NNO 1014,2 10 -
05.07.2020 19:00:00 30,0 12,0 29 16 NNO - 10 -
05.07.2020 18:00:00 32,0 11,0 28 15 NNO - 10 -
05.07.2020 17:00:00 32,8 11,3 24 13 NO 1014,3 10 0,0
05.07.2020 16:00:00 34,0 10,0 24 13 NNO - 10 -
05.07.2020 15:00:00 33,0 9,0 22 12 N - 10 -
05.07.2020 14:00:00 33,0 10,1 16 9 NO 1015,8 10 -
05.07.2020 13:00:00 31,0 11,0 16 9 NNO - 10 -
05.07.2020 12:00:00 30,0 13,0 18 10 NO - 10 -
05.07.2020 11:00:00 28,5 14,0 21 11 NNO 1017,4 10 0,0
05.07.2020 10:00:00 26,0 15,0 22 12 NNO - 10 -
05.07.2020 09:00:00 24,0 18,0 18 10 NNO - 10 -
05.07.2020 08:00:00 22,2 18,4 18 10 NNO 1017,6 10 -
05.07.2020 07:00:00 20,0 18,0 15 8 NNO - 10 -
05.07.2020 06:00:00 20,0 18,0 15 8 N - 10 -
05.07.2020 05:00:00 20,7 17,7 21 11 N 1017,3 10 0,0
05.07.2020 04:00:00 21,0 18,0 16 9 N - 10 -
05.07.2020 03:00:00 21,0 17,0 18 10 N - 10 -
05.07.2020 02:00:00 21,3 17,1 15 8 N 1018,0 10 -
05.07.2020 01:00:00 22,0 17,0 21 11 N - 10 -
05.07.2020 00:00:00 23,0 17,0 26 14 NNO - 10 -
04.07.2020 23:00:00 22,7 16,7 18 10 NNO 1018,0 10 0,0
04.07.2020 22:00:00 23,0 16,0 21 11 NNO - 10 -
04.07.2020 21:00:00 24,0 16,0 28 15 NNO - 10 -
04.07.2020 20:00:00 25,5 15,7 31 17 NNO 1016,4 10 -
04.07.2020 19:00:00 27,0 15,0 29 16 NNO - 10 -
04.07.2020 18:00:00 28,0 14,0 29 16 NO - 10 -
04.07.2020 17:00:00 28,7 15,4 28 15 NO 1016,0 10 0,0
04.07.2020 16:00:00 28,0 16,0 26 14 NO - 10 -
04.07.2020 15:00:00 29,0 15,0 31 17 NNO - 10 -
04.07.2020 14:00:00 28,6 15,1 31 17 NNO 1017,0 10 -
04.07.2020 13:00:00 28,0 14,0 35 19 NNO - 10 -
04.07.2020 12:00:00 28,0 13,0 34 18 NNO - 10 -
04.07.2020 11:00:00 27,5 12,1 31 17 NNO 1016,7 10 0,0
04.07.2020 10:00:00 27,0 12,0 28 15 NO - 10 -
04.07.2020 09:00:00 24,0 15,0 18 10 NO - 10 -
04.07.2020 08:00:00 23,1 15,5 15 8 NO 1016,8 10 -
04.07.2020 07:00:00 20,0 16,0 15 8 NNO - 10 -
04.07.2020 06:00:00 - - - - - - - -
04.07.2020 05:00:00 19,9 15,6 9 5 N 1016,6 - 0,0
04.07.2020 04:00:00 - - - - - - - -
04.07.2020 03:00:00 22,0 15,0 26 14 NO - 10 -
04.07.2020 02:00:00 21,8 14,3 24 13 NNO 1016,2 10 -
04.07.2020 01:00:00 22,0 15,0 22 12 NNO - 10 -
04.07.2020 00:00:00 23,0 16,0 28 15 NNO - 10 -
03.07.2020 23:00:00 23,2 16,2 24 13 NNO 1015,8 10 0,0
03.07.2020 22:00:00 25,0 16,0 31 17 NNO - 10 -
03.07.2020 21:00:00 27,0 12,0 24 13 NNO - 10 -
03.07.2020 20:00:00 27,7 11,6 34 18 NNO 1013,6 10 -
03.07.2020 19:00:00 30,0 14,0 37 20 NNO - 10 -
03.07.2020 18:00:00 33,0 12,0 34 18 NNO - 10 -
03.07.2020 17:00:00 34,0 13,5 29 16 NNO 1011,8 10 0,0
03.07.2020 16:00:00 34,0 15,0 28 15 N - 10 -
03.07.2020 15:00:00 35,0 14,0 28 15 NNO - 10 -
03.07.2020 14:00:00 33,9 14,8 24 13 N 1012,7 10 -
03.07.2020 13:00:00 34,0 16,0 26 14 N - 10 -
03.07.2020 12:00:00 33,0 15,0 28 15 NNO - 10 -
03.07.2020 11:00:00 30,9 16,4 26 14 NNO 1013,1 10 0,0
03.07.2020 10:00:00 29,0 18,0 24 13 NNO - 10 -
03.07.2020 09:00:00 26,0 20,0 22 12 NNO - 10 -
03.07.2020 08:00:00 24,3 21,3 22 12 NNO 1013,0 10 -
03.07.2020 07:00:00 23,0 21,0 16 9 NNO - 10 -
03.07.2020 06:00:00 22,0 21,0 16 9 NNO - 10 -
03.07.2020 05:00:00 22,2 21,4 13 7 NO 1011,9 10 0,0
03.07.2020 04:00:00 23,0 21,0 16 9 NO - 10 -
03.07.2020 03:00:00 23,0 21,0 15 8 NNO - 10 -
03.07.2020 02:00:00 23,5 20,2 16 9 N 1012,3 10 -
03.07.2020 01:00:00 24,0 19,0 11 6 NO - 10 -
03.07.2020 00:00:00 24,0 19,0 15 8 NO - 10 -
02.07.2020 23:00:00 25,6 18,9 13 7 NO 1012,1 10 0,0
02.07.2020 22:00:00 27,0 19,0 15 8 N - 10 -
02.07.2020 21:00:00 28,0 20,0 16 9 NNO - 10 -
02.07.2020 20:00:00 28,4 21,3 8 4 SE 1011,7 10 -
02.07.2020 19:00:00 29,0 21,0 16 9 SE - 10 -
02.07.2020 18:00:00 29,0 21,0 18 10 SE - 10 -
02.07.2020 17:00:00 28,5 21,4 24 13 SE 1011,3 - 0,0
02.07.2020 16:00:00 29,0 22,0 28 15 SE - 10 -
02.07.2020 15:00:00 37,0 16,0 16 9 NNO - 10 -
02.07.2020 14:00:00 34,4 17,5 18 10 NNO 1011,0 10 -
02.07.2020 13:00:00 32,0 19,0 15 8 NO - 10 -
02.07.2020 12:00:00 31,0 19,0 15 8 NO - 10 -
02.07.2020 11:00:00 29,2 19,6 18 10 NO 1011,6 10 0,0
02.07.2020 10:00:00 27,0 20,0 15 8 NO - 10 -
02.07.2020 09:00:00 26,0 20,0 21 11 NNO - 10 -
02.07.2020 08:00:00 24,7 20,0 15 8 N 1010,9 10 -
02.07.2020 07:00:00 23,0 20,0 13 7 NNO - 10 -
02.07.2020 06:00:00 23,0 20,0 13 7 NNO - 10 -
02.07.2020 05:00:00 22,9 20,5 11 6 N 1010,5 10 0,0
02.07.2020 04:00:00 24,0 21,0 16 9 NO - 10 -
02.07.2020 03:00:00 23,0 21,0 16 9 NO - 10 -
02.07.2020 02:00:00 23,4 22,7 4 2 ESE 1011,1 10 -
02.07.2020 01:00:00 24,0 24,0 8 4 SSE - 10 -
02.07.2020 00:00:00 25,0 23,0 16 9 SE - 10 -
01.07.2020 23:00:00 24,7 23,6 21 11 SE 1011,8 10 0,0
01.07.2020 22:00:00 25,0 22,0 13 7 SE - 10 -
01.07.2020 21:00:00 26,0 22,0 16 9 SE - 10 -
01.07.2020 20:00:00 26,6 21,0 21 11 SE 1010,9 10 -
01.07.2020 19:00:00 27,0 24,0 21 11 SE - 10 -
01.07.2020 18:00:00 27,0 23,0 22 12 SSE - 10 -
01.07.2020 17:00:00 27,8 23,1 21 11 SSE 1011,8 10 0,0
01.07.2020 16:00:00 29,0 23,0 22 12 SSE - 10 -

tt = Temperatura
td = dewpoint
ff = velocità del vento
dd = direzione del vento
ppp = reduced air pressure
vv = visibility
rr = precipitazioni

Stazioni seguenti

WeatherPro
AMSI
MeteoEarth